パンスターズ彗星

C/2014 W2 ( PanSTARRS )

English version
Home page
Updated on March 3, 2018

---------------------------------------------------------------------

・ プロフィール

発見日 2014年11月17日
発見光度 18.8等
発見者 Pan-STARRS 1 telescope (Haleakala)

・ 写真集

・ 軌道要素

Epoch 2016 Feb. 22.0 TT = JDT 2457440.5
T 2016 Mar. 10.48316 TT                                 MPCW
q   2.6702087            (2000.0)            P               Q
z  +0.0006202      Peri.   85.00943     -0.10046985     -0.35270769
 +/-0.0000001      Node    69.96278     -0.27383721     -0.88913940
e   0.9983439      Incl.   81.99860     +0.95651398     -0.29159631
From 3260 observations 2014 Oct. 24-2017 Sept. 11, mean residual 0".5.

・ 星図

・ 光度変化

        m1 = 4.0 + 5 logΔ + 14.0 log r

---------------------------------------------------------------------

軌道要素はM.P.E.C. 2017-T14に掲載されたものです。
星図はステラナビゲータ Ver.8 (アストロアーツ) で作成したものです。
光度グラフはComet for Windowsで作成したものです。

---------------------------------------------------------------------

Copyright(C) Seiichi Yoshida (comet@aerith.net). All rights reserved.